Location: ????????
(55.6189°N, 38.3031°E)
Time: 05:02:33
(UTC+00:00)

Cosmos 1151 Rocket - Pass Details

Date: 15 November 2019
Orbit: 593 x 615 km, 82.5° (Epoch: 07 December)

Event Time Altitude Azimuth Distance (km) Brightness Sun altitude
Rises 03:55:30 0° 340° (NNW) 2,902 6.1 -9.1°
Reaches altitude 10° 03:58:00 10° 329° (NNW) 1,990 5.2 -8.7°
Maximum altitude 04:01:40 26° 272° (W) 1,213 4.0 -8.3°
Drops below altitude 10° 04:05:18 10° 216° (SW) 1,969 5.5 -7.8°
Sets 04:07:45 0° 204° (SSW) 2,865 6.5 -7.5°
